COSMOS 2567

导读

COSMOS 2567是独联体(CIS)于2023年3月23日发射的军用卫星,延续了苏俄"宇宙"系列卫星保密传统,公开信息较少。结合该系列定位,它大概率承担电子侦察任务,属于Liana电子侦察体系,接替老式Tselina卫星,通过拦截无线电信号获取军事情报,服务俄罗斯国防情报需求,运行在近地轨道执行常态化监视任务。

Basic Information
目录编号:
55978
目录名称:
COSMOS 2567
国际标识:
2023-040A
轨道中心:
EARTH
卫星名称:
COSMOS 2567
卫星全名:
--
卫星状态:
在轨 (已飞行1261 天)
发射日期:
2023-03-23 UTC
国别 :
俄罗斯(独联体) (CIS)
星等 :
--
Orbit Information
数据来源 国际轨道数据
星历时间: 2026-09-04T14:50:59+0800
8小时前
查看轨道信息
半长轴: 6867.838km
偏心率: 0.0002178
轨道倾角: 97.587°
近地点辐角 115.424°
升交点赤经 174.515°
平近点角 244.722°
近地点: 488.205km
远地点: 491.197km
周期: 94.404分钟
每日圈数: 15.253614
Detailed Information
使用方式:
暂无
2D Orbit Map
3D Orbit Map
Orbit Altitude Analysis Chart
Orbit Inclination Analysis Chart
Orbit Comprehensive Analysis Chart
View Comprehensive Chart
Conjunction Data List
Event ID Objects TCA Miss Dist (km) Collision Risk Probability Collision Risk Index (CRI) Action
CDM_260904-172905-597806-348923
HERMES-6 (63489)
2026-09-04T
17:29:07+0000
0.510 km
远距离
9.80654E-5 中风险 0.75
CDM_260904-065001-051705-597824
2026-09-04T
06:50:17+0000
1.050 km
极远距离
2.18735E-5 中风险 0.62
CDM_260905-205804-940205-597821
KOSEN-1 (49402)
2026-09-05T
20:58:48+0000
1.818 km
极远距离
3.342419E-6 低风险 0.45
CDM_260906-124302-498005-597821
2026-09-06T
12:43:55+0000
2.356 km
极远距离
1.584854E-6 低风险 0.39